Home   Weather   Bat Yam   Past weeks

Flag for Israel Past Weather in Bat Yam, Israel — Yesterday and Last 2 Weeks

Now
79 °F

Passing clouds.


Feels Like: 81 °F
Forecast: 77 / 87 °F
Wind: 3 mph from North

Location: Dov Airport

Current Time: Aug 21, 2017 at 5:59:03 am

Latest Report: Aug 21, 2017 at 5:02 am


Visibility: N/A

Pressure: 29.80 "Hg

Humidity: 74%

Dew Point: 70 °F

Location of Bat YamLocation

Past Weather in Bat Yam — Graph

°F

Bat Yam Temperature Yesterday

Maximum temperature yesterday: 88 °F (at 11:50 am)
Minimum temperature yesterday: 79 °F (at 4:50 am)
Average temperature yesterday: 84 °F

High & Low Weather Summary for the Past Weeks

 TemperatureHumidityPressure
High91 °F (Aug 10, 2:50 pm)79% (Aug 7, 5:26 am)29.86 "Hg (Aug 7, 5:26 am)
Low77 °F (Aug 6, 4:30 am)52% (Aug 16, 2:50 pm)29.65 "Hg (Aug 16, 5:50 pm)
Average85 °F66%29.76 "Hg
* Reported Aug 5 10:50 pm — Aug 20 10:50 pm, Bat Yam. Weather by CustomWeather, © 2017

Note: Actual official high and low records may vary slightly from our data, if they occured in-between our weather recording intervals... More about our weather records

Advertising

Bat Yam Weather History for the Previous 24 Hours

Scroll right to see more
 ConditionsComfort  
Time TempWeatherWind HumidityBarometerVisibility
10:50 pm
Sun, Aug 20
82 °FPassing clouds.9 mph66%29.83 "HgN/A
9:50 pm82 °FPassing clouds.7 mph66%29.83 "HgN/A
8:50 pm84 °FPassing clouds.9 mph58%29.83 "HgN/A
7:50 pm84 °FPassing clouds.12 mph58%29.83 "HgN/A
6:50 pm84 °FSunny.13 mph62%29.80 "Hg10 mi
5:50 pm86 °FSunny.13 mph59%29.80 "Hg10 mi
4:50 pm88 °FSunny.14 mph55%29.80 "Hg10 mi
3:50 pm88 °FSunny.14 mph55%29.80 "Hg10 mi
2:50 pm88 °FSunny.14 mph59%29.83 "Hg10 mi
1:50 pm88 °FSunny.13 mph55%29.83 "Hg10 mi
12:50 pm88 °FSunny.12 mph55%29.83 "Hg10 mi
11:50 am88 °FSunny.12 mph55%29.83 "Hg10 mi
10:50 am86 °FSunny.8 mph62%29.83 "Hg10 mi
9:50 am84 °FSunny.7 mph66%29.83 "Hg10 mi
8:50 am84 °FSunny.5 mph62%29.83 "Hg10 mi
7:50 am81 °FSunny.3 mph66%29.83 "Hg10 mi
6:50 am79 °FSunny.5 mph65%29.83 "Hg10 mi
5:50 am79 °FClear.6 mph65%29.80 "Hg10 mi
Weather by CustomWeather, © 2017

See weather overviewHow to use our weather pages